Location: *
(11.7485°N, 79.7483°E)
Time: 02:52:58
(UTC+00:00)

Cosmos 540 Rocket - Pass Details

Date: 22 January 2021
Orbit: 739 x 754 km, 74.1° (Epoch: 05 March)

Event Time Altitude Azimuth Distance (km) Brightness Sun altitude
Rises 23:58:58 0° 215° (SW) 3,162 6.5 -16.4°
Reaches altitude 10° 00:01:36 10° 226° (SW) 2,240 5.6 -15.8°
Maximum altitude 00:05:55 28° 285° (WNW) 1,361 4.2 -14.8°
Drops below altitude 10° 00:10:14 10° 344° (NNW) 2,243 5.6 -13.8°
Sets 00:12:53 0° 355° (N) 3,168 6.5 -13.1°
